Location: Unspecified
(48.2082°N, 0.0000°E)
Time: 08:37:20
(UTC+00:00)

Transit 4A - Pass Details

Date: 18 June 2019
Orbit: 863 x 981 km, 66.8° (Epoch: 17 August)

Event Time Altitude Azimuth Distance (km) Brightness Sun altitude
Rises 11:57:44 0° 276° (W) 3,657 11.0 65.2°
Reaches altitude 10° 12:01:07 10° 293° (WNW) 2,726 10.4 65.2°
Maximum altitude 12:05:34 19° 338° (NNW) 2,141 9.8 65.2°
Drops below altitude 10° 12:10:03 10° 22° (NNE) 2,745 10.2 65.1°
Sets 12:13:29 0° 40° (NE) 3,692 10.8 65.1°
